Regional Weather Roundup
Issued by NWS Bismarck, ND

Home | Current Version | Previous Version | Text Only | Print | Product List | Glossary On
Versions: 1 2 3 4 5 6 7 8 9 10 11 12 13 14 15 16 17 18 19 20 21 22 23 24 25 26 27 28 29 30 31 32 33 34 35 36 37 38 39 40 41 42 43 44 45 46 47 48 49 50
000
ASUS43 KBIS 261102
RWRBIS

NWR BROADCAST TEXT
NATIONAL WEATHER SERVICE BISMARCK ND
500 AM CST SUN FEB 26 2017

NOTE: "FAIR" INDICATES FEW OR NO CLOUDS BELOW 12,000 FEET WITH NO
SIGNIFICANT WEATHER AND/OR OBSTRUCTIONS TO VISIBILITY.


CITY           SKY/WX    TMP DP  RH WIND       PRES   REMARKS
WILLISTON      CLOUDY    10   8  92 CALM      29.71S
MINOT          FAIR       0  -5  79 SW8       29.73S WCI -14
MINOT AFB      FAIR      -6 -11  81 W6        29.73S WCI -19
BISMARCK       FAIR      12   7  80 NW3       29.75S
DICKINSON      FLURRIES  14  10  84 E6        29.64S WCI   5
GARRISON         N/A      1  -3  83 N3        29.72F
HETTINGER ARPT MOCLDY     8   4  83 CALM      29.68S
JAMESTOWN      FLURRIES  15  11  83 N14       29.72R WCI   0
CARRINGTON     CLOUDY    10   9  92 N5        29.76R WCI   2
HAZEN          CLOUDY   N/A N/A N/A S3        29.77R
MANDAN         CLOUDY     9   5  85 NW7       29.73S WCI  -3
STANLEY        CLOUDY    -6  -9  84 CALM      29.71F
$$

CITY           SKY/WX    TMP DP  RH WIND       PRES   REMARKS
GRAND FORKS    MOCLDY     7   1  76 NW6       29.76R WCI  -3
GRAND FORKS AF FAIR       5   2  86 N5        29.76S WCI  -4
DEVILS LAKE    FAIR      -1  -3  91 NW6       29.75R WCI -13
FARGO          CLOUDY    16  11  80 MISG      29.73R
CAVALIER         N/A      5   0  78 W5        29.77R WCI  -4
GRAFTON        FAIR       7   7 100 NW6       29.79R WCI  -3
GWINNER        CLOUDY    27  23  86 NW18      29.70R WCI  13
ROLLA          FAIR      -2  -4  92 W7        29.71S WCI -16
$$

CITY           SKY/WX    TMP DP  RH WIND       PRES   REMARKS
ABERDEEN       FAIR      23  18  81 NW10      29.72R WCI  12
MOBRIDGE       MOCLDY    21  16  81 NW8       29.71R WCI  11
BUFFALO          N/A     18  11  74 W10       29.60R WCI   6
RAPID CITY     FAIR      21  11  65 W10       29.72S WCI  10
GLASGOW        CLOUDY    17  14  88 NE5       29.65R WCI  10
SIDNEY         CLOUDY    16  13  88 E3        29.69S
WOLF POINT     MOCLDY    11   7  84 CALM      29.68S
GLENDIVE       FOG       20  18  92 CALM      29.65F VSB 1/2
MILES CITY     CLOUDY    26  16  65 W12       29.68S WCI  16
BAKER          FAIR      21  13  71 W13       29.65R WCI   9
$$

CITY           SKY/WX    TMP DP  RH WIND       PRES   REMARKS
BILLINGS       CLOUDY    24  11  57 SW13      29.72R WCI  12
GREAT FALLS    CLOUDY    26  17  68 NW10      29.71S WCI  16
$$





USA.gov is the U.S. government's official web portal to all federal, state and local government web resources and services.